Vertical_Velocity
2 6 2 2 2 1 1 5 1 1 3 0 1 -0 0 -1 -1 -0 -1 -1 -1 -2
8 7 4 -0 1 4 2 3 0 3 1 -1 -1 -1 -0 -1 -1 -0 -0 -1 -2 -2
10 3 -0 5 1 3 2 2 -0 1 -3 1 -0 0 0 -1 -1 0 -1 -0 -2 -2
9 1 -0 0 4 2 0 1 1 -12 82 -3 -0 1 0 -1 0 -1 0 2 -1 -2
-1 2 0 2 2 3 -1 3 3 5 -2 -1 0 -1 -1 1 -0 1 -1 -2 0 -2
-3 -0 1 5 4 -1 0 6 -1 2 -1 0 -0 -0 -0 0 2 2 3 2 -1 -2
2 3 1 4 2 -0 2 -1 0 -0 1 -1 0 -0 1 0 -2 8 3 -0 -1 -0
1 -4 -0 -0 -3 2 -18 46 -2 -2 -1 -1 -2 -0 -1 -0 -0 2 1 -3 0 -0
2 3 -0 -3 3 2 0 12 4 1 3 -1 1 7 0 2 3 -2 3 3 0 -1
3 4 2 2 -3 2 9 -5 5 35 12 1 -0 -0 0 -0 1 3 -1 1 0 1
5 1 50 7 2 -1 21 29 15 18 3 2 1 -1 1 2 1 0 -0 -0 -0 1
0 -0 -3 14 -11 31 -4 -2 5 2 -1 0 -2 0 1 -1 -1 1 1 1 1 -0
38 39 63 27 15 7 5 1 -6 0 -3 2 -2 3 -0 -1 -2 1 3 -2 -0 -1
5 13 1 10 -8 -4 -7 -1 -2 -2 2 4 3 -0 1 1 1 -2 1 0 1 -3
Height
5705 5705 5706 5708 5711 5713 5716 5717 5718 5718 5718 5718 5717 5716 5715 5713 5710 5707 5704 5700 5697 5693
5691 5692 5696 5698 5700 5703 5706 5708 5708 5708 5708 5708 5708 5706 5706 5703 5700 5697 5694 5690 5687 5682
5674 5679 5684 5687 5690 5693 5696 5697 5699 5699 5698 5698 5698 5697 5696 5693 5690 5688 5684 5680 5675 5671
5662 5668 5671 5675 5680 5685 5686 5688 5690 5693 5684 5691 5690 5688 5686 5684 5680 5677 5673 5669 5664 5659
5650 5656 5661 5666 5671 5675 5677 5680 5681 5686 5683 5681 5680 5678 5676 5673 5670 5666 5662 5657 5652 5646
5638 5646 5652 5658 5663 5667 5669 5671 5672 5672 5673 5672 5671 5668 5666 5663 5659 5655 5650 5646 5640 5634
5628 5637 5643 5649 5655 5659 5662 5663 5663 5664 5664 5663 5661 5658 5655 5651 5646 5643 5638 5632 5627 5620
5620 5629 5636 5643 5647 5651 5653 5654 5655 5655 5655 5653 5650 5647 5643 5639 5634 5630 5625 5618 5613 5606
5617 5625 5632 5635 5639 5642 5645 5645 5645 5645 5645 5642 5639 5637 5632 5628 5623 5617 5612 5605 5598 5591
5616 5621 5625 5630 5633 5635 5635 5634 5634 5634 5635 5633 5630 5626 5620 5615 5611 5605 5599 5592 5585 5577
5610 5615 5620 5624 5628 5631 5629 5628 5627 5627 5625 5622 5617 5612 5608 5604 5598 5592 5585 5578 5571 5563
5606 5611 5615 5617 5620 5620 5620 5621 5623 5618 5615 5610 5607 5602 5597 5591 5586 5579 5571 5563 5556 5548
5604 5605 5605 5609 5612 5612 5612 5611 5610 5608 5605 5601 5596 5590 5585 5578 5572 5566 5559 5550 5541 5533
5601 5602 5603 5603 5607 5606 5603 5604 5602 5598 5593 5589 5584 5579 5573 5568 5560 5553 5545 5536 5526 5517